Volver al catálogo

FALCON HEAVY R/B

ActivoGEO
NORAD 55265·ROCKET BODY·🇺🇸 United States

Lanzado Jan 15, 2023 desde Cape Canaveral Space Force Station

Loading…

TLE

ActualizadoSource: Space-Track

Época: Sep 14, 2026, 15:12 UTC

1 55265U 23008C   26257.63402401 -.00000094  00000-0  00000-0 0  9992
2 55265   3.0916  74.7055 0054721  81.2117 279.8209  1.03134212  8812

Sigue FALCON HEAVY R/B en tiempo real con AllMySat

Download on the App Store